Preview of NWS' New Version of Forecast
This preview is not operational and should not be used for support decisions.

Regional Weather Roundup (RWR)

Issued by National Weather Service (NWS)

                            
000
ASUS43 KBIS 210502
RWRND 

NORTH DAKOTA REGIONAL WEATHER ROUNDUP
NATIONAL WEATHER SERVICE BISMARCK ND
1200 AM CDT SAT SEP 21 2019

NOTE: "FAIR" INDICATES FEW OR NO CLOUDS BELOW 12,000 FEET WITH NO
SIGNIFICANT WEATHER AND/OR OBSTRUCTIONS TO VISIBILITY.


NDZ001>003-009>011-017-210600-
NORTHWEST NORTH DAKOTA
  
CITY           SKY/WX    TMP DP  RH WIND       PRES   REMARKS
WILLISTON      LGT RAIN  64  57  78 N14       29.71F                  
MINOT          CLOUDY    63  61  93 NW9       29.66F                  
$$
 
NDZ018>021-031>035-040>046-210600-
SOUTHWEST NORTH DAKOTA
  
CITY           SKY/WX    TMP DP  RH WIND       PRES   REMARKS
BISMARCK       MOCLDY    64  63  96 E6        29.63F                  
DICKINSON      CLOUDY    64  63  96 NW5       29.69R                  
GARRISON         N/A     61  60  97 N9        29.64F                  
HETTINGER ARPT CLOUDY    62  60  93 NW7       29.70F                  
$$
 
NDZ004>008-012>016-024-026-027-054-210600-
NORTHEAST NORTH DAKOTA
  
CITY           SKY/WX    TMP DP  RH WIND       PRES   REMARKS
GRAND FORKS    TSTM      65  62  90 CALM      29.71R FOG              
GRND FRKS AFB  TSTM      64  64 100 W9        29.73R VSB 3/4          
DEVILS LAKE    TSTM      63  62  97 SE12      29.74S                  
$$
 
NDZ022-023-025-028>030-036>039-047>053-210600-
SOUTHEAST NORTH DAKOTA
  
CITY           SKY/WX    TMP DP  RH WIND       PRES   REMARKS
FARGO          MOCLDY    78  68  71 S18G31    29.70F                  
JAMESTOWN      CLOUDY    69  64  84 N13G28    29.70R                  
$$